Satellite-Ground Cal/Val Region Overpasses Predictions

Prediction of Satellite NPP Overpassing Cal/Val Region: PacNW

Region Location: (Latitude: 10.00, Longitude: 139.50) to (Latitude: 22.70, Longitude: 165.60).

Table of predicted overpasses for the next 14.0 days since TLE Epoch: 7/21/2023
Interval Starting Time Starting Location Ending Time Ending Location
1 07/22/2023 02:53:29 ( 10.02, 156.72) 07/22/2023 02:57:04 ( 22.64, 153.72)
2 07/22/2023 15:25:22 ( 22.70, 153.94) 07/22/2023 15:28:58 ( 10.02, 150.93)
3 07/23/2023 02:34:27 ( 10.04, 161.47) 07/23/2023 02:38:02 ( 22.66, 158.47)
4 07/23/2023 15:06:20 ( 22.68, 158.69) 07/23/2023 15:09:55 ( 10.06, 155.70)
5 07/24/2023 02:16:13 ( 12.82, 165.59) 07/24/2023 02:19:01 ( 22.68, 163.22)
6 07/24/2023 03:56:55 ( 10.01, 140.86) 07/24/2023 03:58:34 ( 15.82, 139.51)
7 07/24/2023 14:47:19 ( 22.66, 163.44) 07/24/2023 14:50:54 ( 10.04, 160.45)
8 07/25/2023 03:37:53 ( 10.03, 145.61) 07/25/2023 03:41:28 ( 22.65, 142.61)
9 07/25/2023 14:31:22 ( 11.78, 165.60) 07/25/2023 14:31:52 ( 10.01, 165.20)
10 07/25/2023 16:09:46 ( 22.69, 142.83) 07/25/2023 16:13:22 ( 10.01, 139.82)
11 07/26/2023 03:18:52 ( 10.05, 150.36) 07/26/2023 03:22:27 ( 22.67, 147.36)
12 07/26/2023 15:50:45 ( 22.67, 147.58) 07/26/2023 15:54:20 ( 10.04, 144.58)
13 07/27/2023 02:59:50 ( 10.01, 155.12) 07/27/2023 03:03:26 ( 22.70, 152.11)
14 07/27/2023 15:31:43 ( 22.64, 152.33) 07/27/2023 15:35:18 ( 10.02, 149.33)
15 07/28/2023 02:40:48 ( 10.04, 159.87) 07/28/2023 02:44:23 ( 22.66, 156.87)
16 07/28/2023 15:12:41 ( 22.67, 157.09) 07/28/2023 15:16:16 ( 10.05, 154.10)
17 07/29/2023 02:21:46 ( 10.01, 164.63) 07/29/2023 02:25:22 ( 22.69, 161.62)
18 07/29/2023 14:53:39 ( 22.65, 161.84) 07/29/2023 14:57:14 ( 10.03, 158.84)
19 07/30/2023 03:44:14 ( 10.04, 144.01) 07/30/2023 03:47:49 ( 22.66, 141.01)
20 07/30/2023 14:35:47 ( 18.57, 165.60) 07/30/2023 14:38:12 ( 10.06, 163.61)
21 07/30/2023 16:16:07 ( 22.67, 141.23) 07/30/2023 16:18:08 ( 15.57, 139.51)
22 07/31/2023 03:25:12 ( 10.01, 148.77) 07/31/2023 03:28:48 ( 22.69, 145.76)
23 07/31/2023 15:57:05 ( 22.64, 145.98) 07/31/2023 16:00:40 ( 10.02, 142.98)
24 08/01/2023 03:06:10 ( 10.04, 153.52) 08/01/2023 03:09:45 ( 22.66, 150.52)
25 08/01/2023 15:38:03 ( 22.67, 150.74) 08/01/2023 15:41:38 ( 10.05, 147.74)
26 08/02/2023 02:47:08 ( 10.01, 158.28) 08/02/2023 02:50:44 ( 22.69, 155.27)
27 08/02/2023 15:19:01 ( 22.64, 155.49) 08/02/2023 15:22:36 ( 10.02, 152.49)
28 08/03/2023 02:28:06 ( 10.04, 163.03) 08/03/2023 02:31:41 ( 22.67, 160.03)
29 08/03/2023 14:59:59 ( 22.67, 160.25) 08/03/2023 15:03:34 ( 10.05, 157.25)
30 08/04/2023 02:11:44 ( 19.41, 165.59) 08/04/2023 02:12:40 ( 22.70, 164.78)
31 08/04/2023 03:50:34 ( 10.02, 142.41) 08/04/2023 03:54:03 ( 22.30, 139.50)
32 08/04/2023 14:40:57 ( 22.69, 165.01) 08/04/2023 14:44:33 ( 10.01, 162.00)
